Regional Weather Roundup
Issued by NWS

Home | Current Version | Previous Version | Text Only | Print | Product List | Glossary Off
Versions: 1 2 3 4 5 6 7 8 9 10 11 12 13 14 15 16 17 18 19 20 21 22 23 24 25 26 27 28 29 30 31 32 33 34 35 36 37 38 39 40 41 42 43 44 45 46 47 48 49 50

000
ASUS43 KBIS 230620
RWRND

NORTH DAKOTA REGIONAL WEATHER ROUNDUP
NATIONAL WEATHER SERVICE BISMARCK ND
100 AM CDT SAT AUG 23 2014

NOTE: "FAIR" INDICATES FEW OR NO CLOUDS BELOW 12,000 FEET WITH NO
SIGNIFICANT WEATHER AND/OR OBSTRUCTIONS TO VISIBILITY.


NDZ001>003-009>011-017-230700-
NORTHWEST NORTH DAKOTA

CITY           SKY/WX    TMP DP  RH WIND       PRES   REMARKS
WILLISTON      CLOUDY    63  55  75 NE13      30.14S
6HR MIN TEMP:  63; 6HR MAX TEMP:  66;

MINOT          CLOUDY    61  56  83 NE12      30.14S
MINOT AFB      CLOUDY    61  60  94 NE10      30.14F
$$

NDZ018>021-031>035-040>046-230700-
SOUTHWEST NORTH DAKOTA

CITY           SKY/WX    TMP DP  RH WIND       PRES   REMARKS
BISMARCK       CLOUDY    65  63  93 NE14      30.08F
6HR MIN TEMP:  65; 6HR MAX TEMP:  68; 6HR PCP: TRACE;

DICKINSON      CLOUDY    62  61  96 NE13      30.06F
GARRISON         N/A     63  59  87 E10       30.11F
6HR MIN TEMP:  62; 6HR MAX TEMP:  65;

HETTINGER ARPT CLOUDY    65  62  90 E16       30.05F
$$

NDZ004>008-012>016-024-026-027-054-230700-
NORTHEAST NORTH DAKOTA

CITY           SKY/WX    TMP DP  RH WIND       PRES   REMARKS
GRAND FORKS    CLOUDY    63  61  94 N13       30.09S
GRND FRKS AFB  DRIZZLE   63  63 100 N9        30.10F
DEVILS LAKE    CLOUDY    61  54  77 NE13      30.12F
$$

NDZ022-023-025-028>030-036>039-047>053-230700-
SOUTHEAST NORTH DAKOTA

CITY           SKY/WX    TMP DP  RH WIND       PRES   REMARKS
FARGO          CLOUDY    67  63  87 N14       30.05F
6HR MIN TEMP:  67; 6HR MAX TEMP:  71;

JAMESTOWN      CLOUDY    64  61  90 NE6       30.09F
$$




USA.gov is the U.S. government's official web portal to all federal, state and local government web resources and services.